Location: Acequia del Cap
(41.7000°N, 0.6167°E)
Time: 00:00:01
(UTC+00:00)

CBERS-1 - Pass Details

Date: 07 August 2020
Orbit: 769 x 778 km, 98.6° (Epoch: 22 September)

Event Time Altitude Azimuth Distance (km) Brightness Sun altitude
Rises 02:00:56 0° 16° (NNE) 3,260 8.5 -25.9°
Reaches altitude 10° 02:03:17 10° 19° (NNE) 2,327 7.5 -25.7°
Maximum altitude 02:08:23 66° 102° (ESE) 839 4.2 -25.2°
Enters shadow 02:09:10 58° 148° (SSE) 901 4.1 -25.1°
